星链-35639(STARLINK-35639)

导读

STARLINK-35639是美国SpaceX星链星座的一员,于2025年11月8日发射升空。作为星链卫星互联网项目的卫星,它主要为全球偏远、网络基础设施薄弱的地区提供高速低延迟互联网接入服务,依托星座低轨部署优势,能降低通信延迟,进一步完善星链全球网络覆盖。

Basic Information
目录编号:
66382
目录名称:
STARLINK-35639
国际标识:
2025-257C
轨道中心:
EARTH
卫星名称:
星链-35639
卫星全名:
星链-35639(STARLINK-35639)
卫星状态:
在轨 (已飞行301 天)
发射日期:
2025-11-08 UTC
国别 :
美国 (US)
星等 :
--
Orbit Information
数据来源 国际轨道数据
星历时间: 2026-09-05T08:11:05+0800
17小时前
查看轨道信息
半长轴: 6840.833km
偏心率: 0.000118
轨道倾角: 53.158°
近地点辐角 92.603°
升交点赤经 102.288°
平近点角 267.511°
近地点: 461.888km
远地点: 463.504km
周期: 93.848分钟
每日圈数: 15.344025
Detailed Information
固有亮度:
5
最大亮度:
2.5
卫星平台:
Starlink V1.0
覆盖范围:
全球
运营商:
太空探索技术公司
运营商所在国:
美国
制造商(研发单位):
太空探索技术公司
制造商所在国:
美国
使用方式:
暂无
Satellite Introduction
Starlink 计划是 SpaceX 推出的全球卫星互联网项目,通过发射低轨道卫星,为全球尤其是偏远地区提供高速、低延迟的互联网服务。自 2019 年起,Starlink 已部署数千颗卫星,旨在缩小全球数字鸿沟,推动互联网普及。该项目还为军事、航空等行业提供通信支持,带来广泛经济效益。
2D Orbit Map
3D Orbit Map
Orbit Altitude Analysis Chart
Orbit Inclination Analysis Chart
Orbit Comprehensive Analysis Chart
View Comprehensive Chart
Conjunction Data List
Event ID Objects TCA Miss Dist (km) Collision Risk Probability Collision Risk Index (CRI) Action
CDM_260908-004706-588406-638221
2026-09-08T
00:47:19+0000
0.556 km
远距离
1.401091E-4 高风险 0.78
CDM_260907-051204-650606-638221
NETSAT-1 (46506)
2026-09-07T
05:12:23+0000
2.322 km
极远距离
2.013236E-6 低风险 0.41
CDM_260907-231306-588406-638221
2026-09-07T
23:13:31+0000
2.297 km
极远距离
1.819682E-6 低风险 0.4
CDM_260906-080606-077806-638221
2026-09-06T
08:06:07+0000
2.761 km
极远距离
1.462857E-6 低风险 0.38
CDM_260907-185005-300806-638221
2026-09-07T
18:50:38+0000
2.851 km
极远距离
1.125524E-6 低风险 0.36